Skip Page Navigation
NASA JPL Caltech
NASA Logo - Jet Propulsion Laboratory + View the NASA Portal
+ Center for Near-Earth Object Studies
JPL Home Earth Solar System Stars & Galaxies Technology
JPL Solar System Dynamics
BODIES ORBITS EPHEMERIDES TOOLS PHYSICAL DATA DISCOVERY FAQ SITE MAP
JPL Small-Body Database Browser
Search: [ help ]  
183691 (2003 YZ24)
Classification: Main-belt Asteroid          SPK-ID: 2183691
Ephemeris | Orbit Diagram | Orbital Elements | Mission Design | Physical Parameters | Discovery Circumstances | Close-Approach Data ]

[ show orbit diagram ]
Orbital Elements at Epoch 2459000.5 (2020-May-31.0) TDB
Reference: JPL 19 (heliocentric ecliptic J2000)
 Element Value Uncertainty (1-sigma)   Units 
e .1883332852097076 4.7698e-08  
a 2.463386565284046 1.612e-08 au
q 1.999448880702644 1.1756e-07 au
i 12.00018881475122 4.4045e-06 deg
node 261.2880750913182 2.6456e-05 deg
peri 287.0933424145371 3.1232e-05 deg
M 4.727568011869323 1.443e-05 deg
tp 2458981.954755460261
(2020-May-12.45475546)
5.6642e-05 TDB
period 1412.203487616474
3.87
1.3862e-05
3.795e-08
d
yr
n .254920769674355 2.5023e-09 deg/d
Q 2.927324249865449 1.9156e-08 au
  Orbit Determination Parameters
   # obs. used (total)      574  
   data-arc span      6919 days (18.94 yr)  
   first obs. used      2001-05-18  
   last obs. used      2020-04-27  
   planetary ephem.      DE431  
   SB-pert. ephem.      SB431-N16  
   condition code      0  
   norm. resid. RMS      .47593  
   source      ORB  
   producer      Otto Matic  
   solution date      2020-May-21 04:40:09  

Additional Information
 Earth MOID = 1.03653 au 
 Jupiter MOID = 2.18729 au 
 T_jup = 3.434 
[ show covariance matrix ]

Ephemeris | Orbit Diagram | Orbital Elements | Mission Design | Physical Parameters | Discovery Circumstances | Close-Approach Data ]

Physical Parameter Table
Parameter Symbol Value Units Sigma Reference Notes
absolute magnitude H 15.7   n/a MPO422715  

183691 (2003 YZ24)          Discovered 2003-Dec-18 by LINEAR at Socorro
Reference: 20080420/Numbers.arcLast Updated: 2008-04-23

[ show close-approach data ]
Ephemeris | Orbit Diagram | Orbital Elements | Mission Design | Physical Parameters | Discovery Circumstances | Close-Approach Data ]
ABOUT SSD CREDITS/AWARDS PRIVACY/COPYRIGHT GLOSSARY LINKS
FirstGov 2020-Jul-06 19:03 UT
(server date/time)  
NASA Home Page
Site Manager:   Ryan S. Park
Webmaster  Alan B. Chamberlin